Weather History for Szeged, Hungary

Change the Weather History Date:

Thursday, October 20, 2011

  Actual Average (LRAR) Record (LRAR)
Temperature  
Mean Temperature 52 °F -  
Max Temperature 58 °F 54 °F 79 °F (2012)
Min Temperature 46 °F 37 °F 33 °F (1997)
Degree Days  
Heating Degree Days 13    
Growing Degree Days 2 (Base 50)    
Moisture  
Dew Point 43 °F    
Average Humidity 71    
Maximum Humidity 87    
Minimum Humidity 55    
Precipitation  
Precipitation 0.00 in 0.05 in - ()
Sea Level Pressure  
Sea Level Pressure 30.12 in    
Wind  
Wind Speed 6 mph ()    
Max Wind Speed 13 mph    
Max Gust Speed -    
Visibility 5.9 miles    
Events Rain    
Averages and records for this station are not official NWS values.
T = Trace of Precipitation, MM = Missing Value Source: Averaged Metar Reports

Daily Weather History Graph

Daily Weather History Graph

Search for Another Location

Airport:

Trip Planner

Search our weather history database for the weather conditions in past years. The results will help you decide how hot, cold, wet, or windy it might be!

Date:

Astronomy

Oct. 20, 2011 Rise Set
Actual Time 7:02 AM CEST 5:45 PM CEST
Civil Twilight 6:32 AM CEST 6:15 PM CEST
Nautical Twilight 5:57 AM CEST 6:50 PM CEST
Astronomical Twilight 5:22 AM CEST 7:25 PM CEST
Moon No Moon Rise 2:05 PM CEST (10/20)
Length of Visible Light 11h 43m
Length of Day
10h 42m
Waning Gibbous, 47% of the Moon is Illuminated
Oct 20
Waning Gibbous
Oct 26
New
Nov 2
First Quarter
Nov 10
Full
Nov 18
Last Quarter

Hourly Weather History & Observations

Time (CEST) Temp. Windchill Dew Point Humidity Pressure Visibility Wind Dir Wind Speed Gust Speed Precip Events Conditions
12:45 AM 53.6 °F - 41.0 °F 62% 30.06 in - South 5.8 mph - N/A   Clear
1:45 AM 50.0 °F - 39.2 °F 66% 30.06 in - South 6.9 mph - N/A   Clear
2:45 AM 48.2 °F - 39.2 °F 71% 30.06 in - South 6.9 mph - N/A   Clear
3:45 AM 50.0 °F - 42.8 °F 76% 30.06 in 6.2 mi SSW 8.1 mph - N/A Rain Light Rain
4:45 AM 50.0 °F - 44.6 °F 82% 30.06 in 6.2 mi South 8.1 mph - N/A Rain Light Rain
5:45 AM 50.0 °F - 46.4 °F 87% 30.06 in 6.2 mi SSW 3.5 mph - N/A Rain Light Rain
6:15 AM 50.0 °F - 46.4 °F 87% 30.06 in 6.2 mi SW 1.2 mph - N/A Rain Light Rain
6:45 AM 50.0 °F - 46.4 °F 87% 30.06 in 3.7 mi South 3.5 mph - N/A   Mostly Cloudy
7:15 AM 50.0 °F - 46.4 °F 87% 30.06 in 3.7 mi SW 1.2 mph - N/A   Mostly Cloudy
7:45 AM 50.0 °F - 46.4 °F 87% 30.09 in 4.3 mi SSW 3.5 mph - N/A   Mostly Cloudy
8:00 AM 50 °F - 46 °F 80% 30.09 in 4 mi SSW 2.2 mph - -   Partly Cloudy
8:15 AM 50.0 °F - 46.4 °F 87% 30.09 in 3.7 mi South 2.3 mph - N/A Rain Light Rain Showers
8:45 AM 51.8 °F - 46.4 °F 82% 30.09 in 4.3 mi NW 4.6 mph - N/A Rain Light Rain Showers
9:15 AM 51.8 °F - 44.6 °F 76% 30.12 in 5.0 mi NW 5.8 mph - N/A   Mostly Cloudy
9:45 AM 51.8 °F - 44.6 °F 76% 30.12 in 5.0 mi NNW 8.1 mph - N/A   Mostly Cloudy
10:15 AM 50.0 °F - 44.6 °F 82% 30.12 in 5.0 mi NNW 10.4 mph - N/A   Mostly Cloudy
10:45 AM 50.0 °F - 44.6 °F 82% 30.15 in 6.2 mi NNW 8.1 mph - N/A   Mostly Cloudy
11:15 AM 50.0 °F - 44.6 °F 82% 30.15 in - North 9.2 mph - N/A   Clear
11:45 AM 51.8 °F - 44.6 °F 76% 30.15 in - NW 9.2 mph - N/A   Clear
12:15 PM 53.6 °F - 44.6 °F 72% 30.15 in 6.2 mi NNW 10.4 mph - N/A   Mostly Cloudy
12:45 PM 53.6 °F - 44.6 °F 72% 30.15 in 6.2 mi NW 9.2 mph - N/A   Mostly Cloudy
1:15 PM 53.6 °F - 42.8 °F 67% 30.15 in - NW 9.2 mph - N/A   Clear
1:45 PM 57.2 °F - 42.8 °F 59% 30.12 in - NNW 5.8 mph - N/A   Clear
2:15 PM 57.2 °F - 42.8 °F 59% 30.12 in - NNW 9.2 mph - N/A   Clear
2:45 PM 59.0 °F - 42.8 °F 55% 30.12 in - NNW 9.2 mph - N/A   Clear
3:15 PM 57.2 °F - 41.0 °F 55% 30.12 in - NW 10.4 mph - N/A   Clear
3:45 PM 57.2 °F - 41.0 °F 55% 30.12 in 6.2 mi North 10.4 mph - N/A   Mostly Cloudy
4:15 PM 55.4 °F - 41.0 °F 58% 30.12 in - NNW 11.5 mph - N/A   Clear
4:45 PM 55.4 °F - 41.0 °F 58% 30.12 in - North 10.4 mph - N/A   Clear
5:15 PM 55.4 °F - 41.0 °F 58% 30.12 in - North 9.2 mph - N/A   Clear
5:45 PM 53.6 °F - 41.0 °F 62% 30.15 in - North 9.2 mph - N/A   Clear
6:15 PM 53.6 °F - 41.0 °F 62% 30.15 in - NNW 9.2 mph - N/A   Clear
6:45 PM 53.6 °F - 41.0 °F 62% 30.15 in - North 9.2 mph - N/A   Clear
7:15 PM 51.8 °F - 41.0 °F 67% 30.15 in - NNW 8.1 mph - N/A   Clear
7:45 PM 51.8 °F - 41.0 °F 67% 30.15 in - NW 6.9 mph - N/A   Clear
8:00 PM 51 °F - 40 °F 57% 30.16 in 16 mi NW 6.7 mph - -   Partly Cloudy
8:15 PM 51.8 °F - 39.2 °F 62% 30.15 in 6.2 mi NNW 10.4 mph - N/A Rain Light Rain
8:45 PM 50.0 °F - 41.0 °F 71% 30.18 in 6.2 mi NNW 10.4 mph - N/A Rain Light Rain
9:15 PM 50.0 °F - 42.8 °F 76% 30.18 in 6.2 mi North 10.4 mph - N/A Rain Light Rain
9:45 PM 48.2 °F - 41.0 °F 76% 30.18 in 6.2 mi North 11.5 mph - N/A Rain Light Rain
10:45 PM 46.4 °F 41.5 °F 41.0 °F 81% 30.18 in 6.2 mi North 10.4 mph - N/A Rain Light Rain
11:45 PM 46.4 °F 40.7 °F 39.2 °F 76% 30.21 in 6.2 mi North 12.7 mph - N/A Rain Light Rain